Home > Weather > Rendsburg > Past weeks

Flag for Germany Past Weather in Rendsburg, Schleswig-Holstein, Germany — Yesterday and Last 2 Weeks

Now
64 °F

Scattered clouds.


Feels Like: 64 °F
Forecast: 59 / 72 °F
Wind: 7 mph from West

Location: Hohn

Current Time: Jul 28, 2016 at 10:55:13 AM

Latest Report: Jul 28, 2016 at 9:20 AM


Visibility: N/A

Pressure: 29.98 "Hg

Humidity: 73%

Dew Point: 55 °F

Location of RendsburgLocation

Past Weather in Rendsburg — Graph

°F

Rendsburg Temperature Yesterday

Maximum temperature yesterday: 72 °F (at 1:20 PM)
Minimum temperature yesterday: 57 °F (at 4:20 AM)
Average temperature yesterday: 64 °F

High & Low Weather Summary for the Past Weeks

 TemperatureHumidityPressure
High84 °F (Jul 24, 4:20 PM)100% (Jul 14, 2:20 AM)30.18 "Hg (Jul 14, 2:20 AM)
Low46 °F (Jul 14, 4:20 AM)37% (Jul 24, 4:20 PM)29.89 "Hg (Jul 13, 9:20 AM)
Average65 °F80%30.05 "Hg
* Reported Jul 13 9:20 AM — Jul 28 9:20 AM, Rendsburg, Weather by CustomWeather, © 2016

Note: Actual official high and low records may vary slightly from our data, if they occured in-between our weather recording intervals... More about our weather records

Advertising

Rendsburg Weather History for the Previous 24 Hours

Scroll right to see more
 ConditionsComfort  
Time TempWeatherWind HumidityBarometerVisibility
9:20 AM
Thu, Jul 28
64 °FScattered clouds.7 mph73%29.98 "HgN/A
8:20 AM63 °FScattered clouds.3 mph77%29.98 "HgN/A
7:20 AM59 °FScattered clouds.6 mph88%29.95 "HgN/A
6:20 AM55 °FFog.1 mph100%29.95 "HgN/A
5:20 AM57 °FPassing clouds.3 mph94%29.95 "HgN/A
4:20 AM59 °FPassing clouds.3 mph88%29.95 "HgN/A
3:20 AM61 °FPassing clouds.7 mph88%29.95 "HgN/A
2:20 AM63 °FPassing clouds.9 mph94%29.95 "HgN/A
1:20 AM63 °FPartly cloudy.8 mph94%29.92 "HgN/A
12:20 AM63 °FPartly cloudy.6 mph94%29.92 "HgN/A
11:20 PM
Wed, Jul 27
61 °FDrizzle. Fog.3 mph100%29.92 "Hg3 mi
9:20 PM63 °FFog.3 mph94%29.92 "Hg3 mi
8:20 PM64 °FFog.9 mph88%29.92 "Hg3 mi
7:48 PM66 °FLight rain. Fog.1 mph94%29.92 "Hg3 mi
7:20 PM66 °FLight rain. Fog.3 mph94%29.92 "Hg3 mi
6:20 PM66 °FPartly sunny.2 mph94%29.92 "Hg6 mi
5:20 PM66 °FSprinkles. Broken clouds.10 mph88%29.92 "HgN/A
4:55 PM70 °FRain showers. Partly sunny.2 mph69%29.92 "Hg2 mi
4:20 PM72 °FScattered showers. Broken clouds.5 mph65%29.92 "HgN/A
3:20 PM72 °FScattered clouds.6 mph61%29.95 "HgN/A
2:20 PM72 °FScattered clouds.7 mph65%29.95 "HgN/A
1:20 PM72 °FScattered clouds.7 mph65%29.98 "HgN/A
12:20 PM70 °FScattered clouds.8 mph69%29.98 "HgN/A
11:20 AM66 °FPartly sunny.5 mph78%30.01 "HgN/A
10:20 AM64 °FPartly sunny.3 mph83%30.01 "HgN/A
Weather by CustomWeather, © 2016

See weather overviewHow to use our weather pages